GPS BIIF-10

Last updated on Fri Dec 19 2025 00:02:37 GMT+0000 (Coordinated Universal Time)

1 40730U 15033A 25352.23486002 -.00000036 00000+0 00000+0 0 9996 2 40730 54.1258 274.5468 0111299 26.9435 333.6560 2.00565410 76360
UTC large
Height (km)
Speed (km/s)
/
Latitude / Longitude
Inclination (degrees)
Orbital Period (minutes)
Azimuth
Elevation
Range (km)
Doppler Factor

Next 0 passes for location: London (51.5072 / 0.1276)

Sorry there are no passes over London.